レモン彗星

P/2011 VJ5 ( Lemmon )

English version
Home page
Updated on February 10, 2013

---------------------------------------------------------------------

・ プロフィール

発見日 2011年11月3日
発見光度 20.2等
発見者 R. Kowalski (Mount Lemmon Survey)

・ 写真集

・ 軌道要素

Epoch 2011 Dec. 25.0 TT = JDT 2455920.5
T 2011 Dec. 8.70196 TT                                  MPC
q   1.5063684            (2000.0)            P               Q
n   0.15708778     Peri.  315.12516     -0.57562323     -0.81762650
a   3.4017922      Node   169.99750     +0.76834084     -0.54584412
e   0.5571839      Incl.    3.97258     +0.27983969     -0.18314228
P   6.27
From 58 observations 2011 Nov. 3-2012 Mar. 30, mean residual 0".8.

・ 光度変化

        m1 = 17.0 + 5 logΔ + 10.0 log r

---------------------------------------------------------------------

軌道要素はM.P.E.C. 2012-G18に掲載されたものです。
光度グラフはComet for Windowsで作成したものです。

---------------------------------------------------------------------

Copyright(C) Seiichi Yoshida (comet@aerith.net). All rights reserved.